Location: Napier
(39.4830°S, 176.9170°E)
Time: 17:39:22
(UTC+13:00)

Mayak - Pass Details

Date: 24 January 2019
Orbit: 581 x 602 km, 97.6° (Epoch: 18 October)

Event Time Altitude Azimuth Distance (km) Brightness Sun altitude
Exits shadow 22:45:11 27° 107° (ESE) 1,156 0.0 -20.5°
Maximum altitude 22:45:18 27° 110° (ESE) 1,155 0.0 -20.5°
Drops below altitude 10° 22:48:51 10° 168° (SSE) 1,944 1.9 -21.0°
Sets 22:51:16 0° 179° (S) 2,857 3.1 -21.3°
